STARLINK-36873

Last updated on Fri Mar 27 2026 00:02:06 GMT+0000 (Coordinated Universal Time)

1 67948U 26037S 26085.50002314 .00110016 00000+0 18597-2 0 9998 2 67948 43.0004 97.2771 0001485 281.5211 111.4001 15.50505891 5909
UTC large
Height (km)
Speed (km/s)
/
Latitude / Longitude
Inclination (degrees)
Orbital Period (minutes)
Azimuth
Elevation
Range (km)
Doppler Factor

Next 0 passes for location: London (51.5072 / 0.1276)

Sorry there are no passes over London.